Dewpoint
75 75 74 74 74 73 73 73 73 73 73 70 68 69 69 70 70 69 68 69 68 67 68 69 69 69 67 67 67 66 66 66 67 66 68 67 66 65 64 65 65 65
76 75 75 75 75 74 74 74 74 73 73 72 71 71 71 71 69 68 68 68 69 67 69 68 69 69 68 67 68 67 67 67 67 64 67 67 67 66 64 64 64 65
76 76 75 74 72 73 72 73 74 74 72 72 72 71 70 71 70 69 69 68 68 67 68 69 69 68 68 67 68 67 66 67 66 64 66 66 66 66 65 63 64 64
77 76 75 74 73 73 74 73 74 74 73 72 71 70 70 70 71 69 69 68 68 68 68 68 68 67 68 68 68 67 67 67 66 66 66 67 66 65 65 65 64 64
77 77 76 75 75 74 74 74 73 73 72 72 71 71 71 71 71 70 69 68 68 68 68 68 68 68 68 68 68 67 66 65 66 67 66 66 66 65 64 64 64 63
77 78 77 76 76 75 74 74 74 72 72 71 71 70 70 70 70 70 69 68 66 66 65 66 67 67 67 68 68 67 66 64 64 66 65 65 64 64 63 63 64 64
77 77 77 76 76 75 75 74 74 74 73 72 73 71 71 70 70 69 69 68 67 67 66 67 68 67 67 68 68 67 66 66 65 66 65 65 65 64 63 63 64 64
77 77 77 77 76 75 75 75 75 74 74 73 72 72 72 70 70 68 68 68 66 68 69 68 68 69 65 66 67 67 66 64 65 66 66 65 65 64 64 63 64 64
77 77 77 77 76 75 73 73 73 74 74 73 72 72 72 71 70 68 69 68 68 68 69 67 68 68 68 66 66 66 65 64 64 65 65 64 64 64 64 64 64 64
77 77 77 75 74 74 73 72 72 73 74 74 73 72 71 71 70 69 68 69 68 68 67 67 67 67 68 67 67 66 65 65 65 65 65 64 64 63 63 64 64 64
77 76 76 75 73 73 73 71 71 71 73 73 72 70 70 70 69 69 69 69 67 67 67 67 66 68 68 66 67 67 66 65 65 65 65 64 64 64 64 65 64 64
77 77 76 75 74 73 72 70 70 71 72 72 71 70 70 68 68 68 68 69 68 68 68 67 68 68 69 68 66 66 66 66 65 64 64 65 65 64 64 65 64 64
77 77 76 74 75 74 72 71 69 69 70 70 71 69 68 67 66 67 68 68 69 68 67 67 67 67 69 68 68 67 68 66 63 63 64 64 64 64 63 63 63 63
77 77 76 75 74 75 74 72 71 71 72 73 72 70 66 66 65 66 66 67 68 68 68 68 68 66 68 68 68 68 66 65 65 64 63 64 64 64 63 62 62 61
78 77 76 76 74 75 74 73 72 72 72 72 72 69 67 64 64 63 66 67 68 67 68 67 66 66 67 67 67 67 67 65 64 65 65 64 64 63 62 62 61 60
77 77 77 76 75 75 75 74 72 72 71 72 71 69 68 64 64 65 66 66 67 67 67 67 66 66 67 64 65 68 67 65 64 65 65 64 64 64 62 61 61 60
77 76 76 76 75 75 75 75 74 73 73 73 72 70 67 66 63 63 64 65 64 65 66 67 66 66 64 62 62 64 67 67 65 65 66 65 64 65 64 63 61 60
76 76 76 75 75 75 74 74 74 74 73 74 72 69 67 65 64 65 66 65 64 65 66 68 67 65 61 61 61 61 64 68 64 64 63 63 63 63 63 63 62 62
76 76 75 75 75 74 75 75 74 74 73 72 71 70 67 67 67 66 65 64 66 67 66 65 67 63 60 60 61 61 61 64 64 61 60 61 62 62 62 63 63 63
76 75 75 74 74 74 74 74 74 73 72 71 70 70 68 68 67 66 66 67 67 68 68 67 67 63 60 59 59 60 60 62 64 61 60 61 62 61 62 63 63 63
74 74 73 73 72 73 74 74 74 74 72 72 70 69 68 69 67 68 68 67 66 67 67 67 68 60 58 58 58 58 59 60 65 61 60 62 62 62 63 64 64 64
73 73 73 72 72 72 72 73 74 74 73 73 71 69 69 68 68 68 69 68 69 67 66 66 66 58 57 58 57 57 59 64 64 62 62 62 63 63 64 65 65 66
73 73 72 72 72 72 71 71 73 73 73 73 71 70 69 68 69 67 67 68 67 67 65 67 65 61 56 56 56 56 58 64 64 63 63 64 64 64 64 65 66 65
72 72 72 72 72 72 71 71 71 72 72 73 71 70 67 67 67 64 67 68 64 64 64 65 65 63 55 54 55 55 59 65 65 65 65 65 65 65 65 66 65 66
72 71 72 71 71 70 70 71 71 72 72 72 70 70 69 69 67 65 66 62 58 62 67 68 64 59 54 54 54 54 60 66 69 67 66 65 66 66 67 66 66 67
71 72 72 71 71 71 71 71 72 70 70 70 70 68 68 66 66 65 61 57 62 63 62 63 60 63 60 53 53 53 56 65 68 68 67 66 67 66 66 65 64 66